Miscellaneous Local Product
Issued by NWS Hastings, NE

Home | Current Version | Previous Version | Graphics & Text | Print | Product List | Glossary On
Versions: 1 2 3 4 5 6 7 8 9 10 11 12 13 14 15 16 17 18 19 20 21 22 23 24 25 26 27 28 29 30 31 32 33 34 35 36 37 38 39 40 41 42 43 44 45 46 47 48 49 50
000
AXUS43 KGID 191002
MISGRI

GID CWA HOURLY WEATHER ROUNDUP
NATIONAL WEATHER SERVICE HASTINGS NE
500 AM CDT SAT APR 19 2014

NOTE: "FAIR" INDICATES FEW OR NO CLOUDS BELOW 12,000 FEET WITH NO
SIGNIFICANT WEATHER AND/OR OBSTRUCTIONS TO VISIBILITY.

...SOUTH CENTRAL NEBRASKA...

CITY           SKY/WX    TMP DP  RH WIND       PRES   REMARKS
GRAND ISLAND   MOCLDY    53  41  63 S21G29    29.94F
HASTINGS       MOCLDY    53  40  61 S15       29.95F
KEARNEY        MOCLDY    54  43  66 S17G25    29.93F
ORD            CLOUDY    55  42  61 S15G24    29.89S
YORK           PTCLDY    54  39  58 S18G25    29.98F
AURORA         MOCLDY    53  40  61 S16       29.96F
LEXINGTON      MOCLDY    53  46  76 SE9G16    29.91R
HOLDREGE       MOCLDY    53  44  71 S17       29.92S
HEBRON         PTCLDY    54  39  58 S16G22    30.02S

...NEBRASKA PANHANDLE...

CITY           SKY/WX    TMP DP  RH WIND       PRES   REMARKS
CHADRON        CLOUDY    47  36  65 E8        29.95R
ALLIANCE       CLOUDY    50  37  61 NE21G32   29.91R
SCOTTSBLUFF    CLOUDY    53  37  54 NW10      29.91R
SIDNEY         CLOUDY    54  35  48 NW15      29.88R

...WESTERN AND NORTH CENTRAL NEBRASKA...

CITY           SKY/WX    TMP DP  RH WIND       PRES   REMARKS
VALENTINE      MOCLDY    53  39  59 N18       29.91R
AINSWORTH      MOCLDY    55  42  62 W7        29.90R
ONEILL         CLOUDY    57  41  54 S15G26    29.88R
BROKEN BOW     CLOUDY    52  44  74 S18       29.87F
IMPERIAL       MOCLDY    50  42  74 S3        29.86R
NORTH PLATTE   CLOUDY    54  43  66 S10G20    29.92R
MCCOOK         MOCLDY    52  45  77 S12       29.87F

...EASTERN NEBRASKA...

CITY           SKY/WX    TMP DP  RH WIND       PRES   REMARKS
NORFOLK        MOCLDY    55  39  54 S18G25    29.95F
SO SIOUX CITY  PTCLDY    54  41  61 S14       29.99S
TEKAMAH        PTCLDY    53  40  61 S9        30.03R
COLUMBUS       MOCLDY    54  37  54 S15       29.98S
ALBION         MOCLDY    54  40  59 S13G20    29.94R
OMAHA EPPLEY   PTCLDY    54  41  61 S16       30.04S
OFFUTT AFB     CLEAR     55  42  62 SE12      30.05R
MILLARD        CLEAR     55  41  58 S13G22    30.03F
LINCOLN        PTCLDY    55  39  54 S17       30.02F
NEBRASKA CITY  CLEAR     52  41  67 S15       30.07F
BEATRICE       PTCLDY    53  39  59 S15       30.04S
FALLS CITY     CLEAR     52  41  66 S13       30.09F

...NORTHERN KANSAS...

CITY           SKY/WX    TMP DP  RH WIND       PRES   REMARKS
GOODLAND       CLOUDY    51  44  77 S18       29.86S
HILL CITY      MOCLDY    55  46  71 S14G21    29.93S
PHILLIPSBURG   CLEAR     57  46  67 S12G17    29.95S
SMITH CENTER   CLEAR     52  45  76 SE15      29.97F
BELOIT         CLEAR     54  41  62 SE10G17   30.01S
HAYS           MOCLDY    55  45  67 S21G26    29.97F
RUSSELL        CLOUDY    57  47  69 S24G32    29.97F
CONCORDIA      PTCLDY    54  40  59 S22G28    30.02F
SALINA         PTCLDY    54  40  59 S12       30.06S
TOPEKA         CLEAR     50  41  71 SE7       30.11F



USA.gov is the U.S. government's official web portal to all federal, state and local government web resources and services.